K9PHP Weather Reports


time (UTC)temp
C
wind
direction
speed
KPH
gust
KPH
rain 1hr
cm
rain 24hr
cm
rain mn
cm
humidity
%
barometer
mb
20260509080006 12 243 4.8 14.5 0.03 2.39 1.14 92 1005.0
20260509074543 12 223 3.2 11.3 0.05 2.39 1.14 92 1005.0
20260509073020 12 228 4.8 9.7 0.05 2.39 1.14 92 1005.2
20260509071601 12 235 4.8 11.3 0.10 2.39 1.14 92 1005.2
20260509071502 12 235 4.8 11.3 0.10 2.39 1.14 92 1005.3
20260509070041 12 236 3.2 12.9 0.15 2.36 1.12 92 1005.4
20260509064529 12 235 4.8 12.9 0.28 2.34 1.09 92 1005.7
20260509063004 12 260 9.7 19.3 0.38 2.34 1.09 92 1005.6
20260509061604 12 261 19.3 30.6 0.38 2.29 1.04 92 1006.2
20260509060026 12 265 6.4 20.9 0.41 2.21 0.97 92 1006.5
20260509054503 12 234 14.5 22.5 0.33 2.03 0.79 92 1006.9
20260509053055 12 247 12.9 22.5 0.36 1.96 0.71 92 1006.7
20260509051522 12 191 4.8 12.9 0.41 1.91 0.66 92 1006.6
20260509050007 12 203 3.2 8.0 0.43 1.80 0.56 92 1006.6
20260509044555 12 236 6.4 12.9 0.46 1.70 0.46 92 1006.8
20260509043029 12 223 4.8 12.9 0.43 1.60 0.36 92 1006.5
20260509041520 12 215 6.4 16.1 0.33 1.50 0.25 91 1006.8
20260509040036 12 198 6.4 12.9 0.25 1.37 0.13 91 1007.0
20260509034509 12 195 3.2 11.3 0.18 1.24 1.24 91 1006.9
20260509033055 12 200 3.2 9.7 0.15 1.17 1.17 91 1006.9
20260509031537 12 182 3.2 11.3 0.25 1.17 1.17 91 1007.0
20260509030017 12 199 0.0 9.7 0.28 1.12 1.12 91 1007.2
20260509024556 12 215 3.2 12.9 0.30 1.07 1.07 91 1007.2
20260509023033 12 236 8.0 11.3 0.28 0.99 1.02 91 1007.6
20260509021514 12 240 9.7 17.7 0.20 0.91 0.91 91 1007.5
20260509020048 12 207 4.8 14.5 0.13 0.81 0.84 91 1007.4
20260509014532 12 236 9.7 16.1 0.10 0.76 0.76 90 1007.3
20260509013008 12 223 6.4 11.3 0.08 0.71 0.71 90 1007.3
20260509011548 12 269 4.8 9.7 0.15 0.71 0.71 90 1007.1
20260509010028 12 284 1.6 4.8 0.23 0.66 0.69 90 1007.0
20260509004510 12 284 4.8 11.3 0.28 0.66 0.66 89 1006.9
20260509003041 12 304 6.4 12.9 0.33 0.64 0.64 89 1006.8
20260509001523 12 298 8.0 17.7 0.28 0.53 0.56 89 1007.1
20260509000010 12 297 6.4 12.9 0.25 0.43 0.43 88 1006.9
20260508234546 13 291 3.2 11.3 0.25 0.38 0.38 87 1007.0
20260508233023 13 308 8.0 12.9 0.23 0.30 0.30 87 1007.1
20260508231510 13 337 0.0 4.8 0.20 0.25 0.25 86 1007.0
20260508230056 13 337 0.0 4.8 0.18 0.18 0.18 85 1007.1
20260508224528 13 335 4.8 9.7 0.13 0.13 0.13 83 1007.2
20260508223014 13 317 9.7 17.7 0.08 0.08 0.08 80 1007.2
20260508221545 14 312 12.9 17.7 0.05 0.05 0.05 77 1007.1
20260508220011 15 299 9.7 16.1 0.00 0.00 0.00 74 1006.8
20260508214614 15 294 8.0 22.5 0.00 0.00 0.00 70 1006.5
20260508213023 16 270 20.9 32.2 0.00 0.00 0.00 65 1006.7
20260508211506 17 265 16.1 22.5 0.00 0.00 0.00 61 1006.6
20260508210037 17 247 6.4 16.1 0.00 0.00 0.00 60 1006.4
20260508204524 17 246 8.0 19.3 0.00 0.00 0.00 59 1006.4
20260508203007 17 248 11.3 22.5 0.00 0.00 0.00 58 1006.5
20260508201547 17 240 19.3 30.6 0.00 0.00 0.00 58 1006.9
20260508200026 17 245 9.7 17.7 0.00 0.00 0.00 60 1007.0
20260508194507 17 256 9.7 17.7 0.00 0.00 0.00 61 1007.3
20260508193046 17 251 8.0 14.5 0.00 0.00 0.00 61 1007.5
20260508191536 17 250 11.3 19.3 0.00 0.00 0.00 60 1007.7
20260508190007 17 248 8.0 24.1 0.00 0.00 0.00 60 1008.0
20260508184544 17 228 12.9 24.1 0.00 0.00 0.00 59 1008.2
20260508183031 17 261 14.5 30.6 0.00 0.00 0.00 58 1008.2
20260508181503 17 234 12.9 29.0 0.00 0.00 0.00 59 1008.5
20260508180042 17 252 17.7 27.4 0.00 0.00 0.00 56 1008.4
20260508174523 17 233 16.1 32.2 0.00 0.00 0.00 58 1008.4
20260508173006 17 248 16.1 30.6 0.00 0.00 0.00 59 1008.7
20260508171545 17 239 22.5 33.8 0.00 0.00 0.00 58 1009.0
20260508170021 17 249 20.9 35.4 0.00 0.00 0.00 60 1009.3
20260508164607 17 259 11.3 22.5 0.00 0.00 0.00 60 1009.6
20260508164501 17 259 9.7 22.5 0.00 0.00 0.00 60 1009.7
20260508163038 16 248 12.9 32.2 0.00 0.00 0.00 61 1010.0
20260508161524 16 248 14.5 27.4 0.00 0.00 0.00 60 1010.1
20260508160040 16 250 12.9 24.1 0.00 0.00 0.00 59 1010.1
20260508154521 16 247 16.1 30.6 0.00 0.00 0.00 60 1010.2
20260508153059 17 257 20.9 40.2 0.00 0.00 0.00 58 1010.2
20260508153001 17 249 22.5 40.2 0.00 0.00 0.00 59 1010.3
20260508151539 17 259 20.9 33.8 0.00 0.00 0.00 59 1010.3
20260508150021 17 269 24.1 40.2 0.00 0.00 0.00 60 1010.3
20260508144551 16 243 25.7 38.6 0.00 0.00 0.00 60 1010.4
20260508143032 16 263 14.5 30.6 0.00 0.00 0.00 62 1010.6
20260508141511 15 238 19.3 29.0 0.00 0.00 0.00 61 1010.7
20260508140047 15 236 16.1 37.0 0.00 0.00 0.00 61 1010.9
20260508134528 14 255 17.7 32.2 0.00 0.00 0.00 62 1011.0
20260508133006 13 257 11.3 25.7 0.00 0.00 0.00 62 1011.1
20260508131545 13 238 17.7 25.7 0.00 0.00 0.00 61 1011.1
20260508130022 12 221 8.0 22.5 0.00 0.00 0.00 63 1011.1
20260508124559 11 223 9.7 19.3 0.00 0.00 0.00 63 1011.3
20260508124500 11 207 9.7 19.3 0.00 0.00 0.00 64 1011.3
20260508123035 11 244 6.4 14.5 0.00 0.00 0.00 66 1011.3
20260508121516 10 229 4.8 11.3 0.00 0.00 0.00 67 1011.3
20260508120055 10 209 1.6 8.0 0.00 0.00 0.00 69 1011.2
20260508114529 9 211 1.6 6.4 0.00 0.00 0.00 71 1011.0
20260508113014 8 213 1.6 6.4 0.00 0.00 0.00 71 1011.0
20260508111603 8 213 1.6 6.4 0.00 0.00 0.00 71 1010.9
20260508110030 8 213 0.0 6.4 0.00 0.00 0.00 70 1010.8
20260508104510 8 221 1.6 4.8 0.00 0.00 0.00 68 1010.9
20260508103045 9 221 1.6 4.8 0.00 0.00 0.00 67 1010.8
20260508101530 9 213 0.0 6.4 0.00 0.00 0.00 65 1010.6
20260508100053 10 208 0.0 9.7 0.00 0.00 0.00 65 1010.8
20260508094526 10 200 4.8 19.3 0.00 0.00 0.00 62 1010.7
20260508093007 10 243 4.8 14.5 0.00 0.00 0.00 64 1010.8
20260508091603 10 253 8.0 17.7 0.00 0.00 0.00 63 1010.8
20260508090026 10 244 6.4 12.9 0.00 0.00 0.00 64 1011.0
20260508084513 10 247 4.8 12.9 0.00 0.00 0.00 65 1011.0
20260508083050 10 258 8.0 17.7 0.00 0.00 0.00 65 1011.3
20260508081534 10 252 8.0 16.1 0.00 0.00 0.00 65 1011.2